Location: Hermaringen
(48.5952°N, 10.2585°E)
Time: 13:22:06
(UTC+00:00)

SR - Pass Details

Date: 17 February 2026
Orbit: 572 x 849 km, 66.7° (Epoch: 12 March)

Event Time Altitude Azimuth Distance (km) Brightness Sun altitude
Rises 05:27:43 0° 246° (WSW) 2,788 - -9.8°
Reaches altitude 10° 05:30:08 10° 257° (WSW) 1,911 - -9.4°
Exits shadow 05:30:19 11° 259° (W) 1,846 ? -9.4°
Maximum altitude 05:33:53 29° 319° (NW) 1,119 ? -8.8°
Drops below altitude 10° 05:37:51 10° 20° (NNE) 2,021 ? -8.2°
Sets 05:40:28 0° 32° (NNE) 2,980 ? -7.7°
